Location: Avully
(45.9633°N, 6.0228°E)
Time: 21:24:30
(UTC+00:00)

Cosmos 2360 Rocket - Pass Details

Date: 08 August 2024
Orbit: 834 x 843 km, 71.0° (Epoch: 10 September)

Event Time Altitude Azimuth Distance (km) Brightness Sun altitude
Exits shadow 23:44:55 27° 91° (E) 1,576 3.5 -28.3°
Drops below altitude 10° 23:48:57 10° 47° (NE) 2,468 5.1 -28.2°
Sets 23:51:42 0° 36° (NE) 3,407 6.2 -28.2°
